{"data":{"norad_id":57254,"intl_designator":"2023-094AN","name":"STARLINK-5490","alt_names":[],"object_type":"PAYLOAD","status":"ACTIVE","operator":null,"country":"US","launch_date":"2023-07-07","launch_site_code":"AFWTR","launch_vehicle":null,"mission":null,"orbit_class":"UNKNOWN","rcs_meters":null,"size_class":null,"mass_kg":null,"dimensions":null,"purposes":["comms"],"wikipedia_slug":null,"has_3d_model":false,"image_url":null,"decayed_at":null,"tle_current":{"epoch":"2026-05-24T19:16:02.745120Z","epoch_age_seconds":88921,"freshness":"FRESH","line1":"1 57254U 23094AN  26144.80280955  .00000287  00000+0  19961-4 0  9991","line2":"2 57254  43.0016 309.7685 0001145 255.9170 104.1555 15.27575493158886","mean_motion":15.27575493,"eccentricity":0.0001145,"inclination_deg":43.0016,"raan_deg":309.7685,"arg_perigee_deg":255.917,"mean_anomaly_deg":104.1555,"bstar":1.9961e-5,"rev_number":15888,"period_min":94.267026840814,"perigee_km":482.27698429897,"apogee_km":483.84819900546,"semimajor_km":6861.1995916522,"source":"CELESTRAK","updated_at":"2026-05-25T13:38:18.279073Z"}}}